• In Hungary
  • List of Countries
  • For 7 days
  • Water Temperature
  • Satellite Maps
  • Weather Map
  • News
  • Weather Widgets
  • user-avatar
    Login

    Hourly Weather Santa Catarina

    Today, 17 October, Tuesday

    Time Temperature Precipitation Wind Pressure Humidity
    00:00 +16°C° 0 mm 1 mps 736 mmHg 95%
    01:00 +16°C° 0 mm 1 mps 736 mmHg 96%
    02:00 +16°C° 0 mm 1 mps 736 mmHg 97%
    03:00 +15°C° 0 mm 0 mps 736 mmHg 98%
    04:00 +15°C° 0 mm 0 mps 736 mmHg 98%
    05:00 +15°C° 0 mm 0 mps 736 mmHg 98%
    06:00 +15°C° 0 mm 0 mps 736 mmHg 98%
    07:00 +18°C° 0 mm 1 mps 736 mmHg 92%
    08:00 +19°C° 0 mm 1 mps 736 mmHg 87%
    09:00 +21°C° 0 mm 1 mps 737 mmHg 81%
    10:00 +22°C° 0 mm 1 mps 736 mmHg 77%
    11:00 +23°C° 0 mm 2 mps 736 mmHg 73%
    12:00 +24°C° 0 mm 2 mps 736 mmHg 69%
    13:00 +25°C° 0 mm 2 mps 735 mmHg 67%
    14:00 +25°C° 0 mm 2 mps 734 mmHg 65%
    15:00 +26°C° 0 mm 2 mps 734 mmHg 63%
    16:00 +25°C° 0 mm 2 mps 734 mmHg 71%
    17:00 +23°C° 0 mm 2 mps 734 mmHg 78%
    18:00 +21°C° 0 mm 2 mps 733 mmHg 86%
    19:00 +20°C° 0 mm 2 mps 734 mmHg 89%
    20:00 +20°C° 0 mm 1 mps 734 mmHg 92%
    21:00 +20°C° 0 mm 1 mps 735 mmHg 95%
    22:00 +20°C° 0 mm 1 mps 735 mmHg 96%
    23:00 +20°C° 0 mm 1 mps 735 mmHg 96%

    Tomorrow, 18 October, Wednesday

    Time Temperature Precipitation Wind Pressure Humidity
    00:00 +20°C° 0 mm 1 mps 735 mmHg 97%
    01:00 +17°C° 0 mm 0 mps 734 mmHg 97%
    02:00 +17°C° 0 mm 0 mps 734 mmHg 97%
    03:00 +17°C° 0 mm 0 mps 733 mmHg 98%
    04:00 +17°C° 0 mm 0 mps 733 mmHg 98%
    05:00 +17°C° 0 mm 0 mps 733 mmHg 98%
    06:00 +17°C° 0 mm 0 mps 733 mmHg 98%
    07:00 +19°C° 0 mm 0 mps 733 mmHg 89%
    08:00 +21°C° 0 mm 0 mps 733 mmHg 80%
    09:00 +25°C° 0 mm 1 mps 733 mmHg 71%
    10:00 +27°C° 0 mm 1 mps 733 mmHg 64%
    11:00 +30°C° 0 mm 1 mps 732 mmHg 58%
    12:00 +32°C° 0 mm 1 mps 732 mmHg 51%
    13:00 +32°C° 0 mm 1 mps 731 mmHg 51%
    14:00 +32°C° 0 mm 1 mps 730 mmHg 50%
    15:00 +34°C° 0 mm 2 mps 730 mmHg 49%
    16:00 +31°C° 0 mm 2 mps 729 mmHg 59%
    17:00 +29°C° 0 mm 2 mps 729 mmHg 69%
    18:00 +27°C° 0 mm 2 mps 729 mmHg 79%
    19:00 +25°C° 0 mm 1 mps 729 mmHg 85%
    20:00 +24°C° 0 mm 1 mps 730 mmHg 91%
    21:00 +22°C° 0 mm 1 mps 730 mmHg 97%
    22:00 +22°C° 0 mm 1 mps 730 mmHg 97%
    23:00 +22°C° 0 mm 1 mps 730 mmHg 97%

    Day after tomorrow, 19 October, Thursday

    Time Temperature Precipitation Wind Pressure Humidity
    00:00 +19°C° 0 mm 0 mps 730 mmHg 97%
    01:00 +19°C° 0 mm 0 mps 729 mmHg 97%
    02:00 +19°C° 0 mm 0 mps 728 mmHg 97%
    03:00 +19°C° 0 mm 0 mps 728 mmHg 98%
    04:00 +19°C° 0 mm 0 mps 728 mmHg 97%
    05:00 +19°C° 0 mm 0 mps 728 mmHg 97%
    06:00 +19°C° 0 mm 0 mps 728 mmHg 96%
    07:00 +23°C° 0 mm 1 mps 728 mmHg 84%
    08:00 +26°C° 0 mm 1 mps 729 mmHg 72%
    09:00 +29°C° 0 mm 1 mps 729 mmHg 60%
    10:00 +29°C° 0.4 mm 2 mps 729 mmHg 58%
    11:00 +30°C° 0.4 mm 3 mps 730 mmHg 56%
    12:00 +32°C° 0.4 mm 4 mps 730 mmHg 54%
    13:00 +29°C° 1.1 mm 3 mps 730 mmHg 60%
    14:00 +27°C° 1.1 mm 3 mps 729 mmHg 65%
    15:00 +25°C° 1.1 mm 2 mps 728 mmHg 70%
    16:00 +25°C° 0.2 mm 1 mps 728 mmHg 73%
    17:00 +24°C° 0.2 mm 1 mps 729 mmHg 76%
    18:00 +21°C° 0.2 mm 0 mps 729 mmHg 79%
    19:00 +23°C° 0 mm 1 mps 729 mmHg 80%
    20:00 +22°C° 0 mm 1 mps 730 mmHg 81%
    21:00 +21°C° 0 mm 1 mps 731 mmHg 82%
    22:00 +21°C° 0 mm 1 mps 730 mmHg 84%
    23:00 +21°C° 0 mm 1 mps 730 mmHg 85%

    20 October, Friday

    Time Temperature Precipitation Wind Pressure Humidity
    00:00 +21°C° 0 mm 1 mps 730 mmHg 87%
    01:00 +20°C° 0 mm 1 mps 730 mmHg 89%
    02:00 +20°C° 0 mm 1 mps 730 mmHg 92%
    03:00 +17°C° 0 mm 0 mps 729 mmHg 94%
    04:00 +17°C° 0 mm 0 mps 730 mmHg 94%
    05:00 +18°C° 0 mm 0 mps 730 mmHg 94%
    06:00 +18°C° 0 mm 0 mps 731 mmHg 93%
    07:00 +21°C° 0.1 mm 1 mps 731 mmHg 90%
    08:00 +22°C° 0.1 mm 1 mps 731 mmHg 87%
    09:00 +22°C° 0.1 mm 1 mps 732 mmHg 83%
    10:00 +23°C° 0.4 mm 1 mps 732 mmHg 83%
    11:00 +23°C° 0.4 mm 1 mps 731 mmHg 83%
    12:00 +23°C° 0.4 mm 1 mps 731 mmHg 83%
    13:00 +23°C° 0.7 mm 1 mps 731 mmHg 86%
    14:00 +23°C° 0.7 mm 1 mps 730 mmHg 88%
    15:00 +23°C° 0.7 mm 1 mps 730 mmHg 90%
    16:00 +22°C° 0.9 mm 1 mps 730 mmHg 92%
    17:00 +22°C° 0.9 mm 1 mps 730 mmHg 95%
    18:00 +21°C° 0.9 mm 1 mps 730 mmHg 97%
    19:00 +21°C° 1.4 mm 1 mps 730 mmHg 97%
    20:00 +21°C° 1.4 mm 1 mps 730 mmHg 98%
    21:00 +20°C° 1.4 mm 1 mps 730 mmHg 99%
    22:00 +20°C° 1.6 mm 1 mps 729 mmHg 99%
    23:00 +20°C° 1.6 mm 1 mps 729 mmHg 99%

    21 October, Saturday

    Time Temperature Precipitation Wind Pressure Humidity
    00:00 +20°C° 1.6 mm 1 mps 728 mmHg 99%
    01:00 +20°C° 1 mm 1 mps 728 mmHg 99%
    02:00 +20°C° 1 mm 1 mps 727 mmHg 99%
    03:00 +20°C° 1 mm 1 mps 727 mmHg 99%
    04:00 +20°C° 3.6 mm 1 mps 727 mmHg 99%
    05:00 +20°C° 3.6 mm 1 mps 727 mmHg 98%
    06:00 +20°C° 3.6 mm 1 mps 727 mmHg 98%
    07:00 +21°C° 4.7 mm 1 mps 727 mmHg 98%
    08:00 +21°C° 4.7 mm 1 mps 727 mmHg 98%
    09:00 +19°C° 4.7 mm 0 mps 727 mmHg 98%
    10:00 +22°C° 2.1 mm 1 mps 727 mmHg 96%
    11:00 +22°C° 2.1 mm 1 mps 726 mmHg 93%
    12:00 +23°C° 2.1 mm 1 mps 726 mmHg 91%
    13:00 +25°C° 0.2 mm 1 mps 725 mmHg 84%
    14:00 +26°C° 0.2 mm 2 mps 725 mmHg 77%
    15:00 +27°C° 0.2 mm 2 mps 725 mmHg 69%
    16:00 +26°C° 0.2 mm 2 mps 725 mmHg 75%
    17:00 +25°C° 0.2 mm 2 mps 725 mmHg 80%
    18:00 +24°C° 0.2 mm 1 mps 725 mmHg 86%
    19:00 +24°C° 0 mm 1 mps 726 mmHg 87%
    20:00 +23°C° 0 mm 1 mps 726 mmHg 89%
    21:00 +22°C° 0 mm 1 mps 727 mmHg 90%
    22:00 +22°C° 0 mm 1 mps 727 mmHg 91%
    23:00 +22°C° 0 mm 1 mps 727 mmHg 92%

    22 October, Sunday

    Time Temperature Precipitation Wind Pressure Humidity
    00:00 +22°C° 0 mm 1 mps 727 mmHg 93%
    01:00 +21°C° 0 mm 1 mps 727 mmHg 94%
    02:00 +21°C° 0 mm 1 mps 727 mmHg 94%
    03:00 +21°C° 0 mm 1 mps 727 mmHg 95%
    04:00 +21°C° 0 mm 1 mps 727 mmHg 95%
    05:00 +20°C° 0 mm 1 mps 727 mmHg 95%
    06:00 +20°C° 0 mm 1 mps 728 mmHg 95%
    07:00 +22°C° 0.1 mm 1 mps 728 mmHg 87%
    08:00 +24°C° 0.1 mm 1 mps 729 mmHg 78%
    09:00 +26°C° 0.1 mm 1 mps 730 mmHg 70%
    10:00 +26°C° 0.5 mm 1 mps 729 mmHg 72%
    11:00 +26°C° 0.5 mm 1 mps 729 mmHg 75%
    12:00 +26°C° 0.5 mm 1 mps 729 mmHg 78%
    13:00 +25°C° 1.8 mm 1 mps 729 mmHg 83%
    14:00 +24°C° 1.8 mm 1 mps 728 mmHg 89%
    15:00 +22°C° 1.8 mm 1 mps 728 mmHg 95%
    16:00 +22°C° 2.3 mm 1 mps 729 mmHg 95%
    17:00 +21°C° 2.3 mm 1 mps 729 mmHg 94%
    18:00 +20°C° 2.3 mm 1 mps 729 mmHg 94%
    19:00 +19°C° 0.3 mm 1 mps 730 mmHg 95%
    20:00 +18°C° 0.3 mm 1 mps 730 mmHg 95%
    21:00 +16°C° 0.3 mm 0 mps 731 mmHg 96%
    22:00 +15°C° 0 mm 0 mps 731 mmHg 96%
    23:00 +15°C° 0 mm 1 mps 731 mmHg 95%
    Show more